sat.trackr.live / text

‹ back to catalog

STARLINK-32918

NORAD 63087 · 2025-037L

PAYLOAD ACTIVE UNKNOWN

§ Identity

Operator
Country
US
Launch date
2025-02-23
Launch site
AFWTR
Launch vehicle
Mass (kg)
RCS (m²)

Purposes: comms

External: N2YO · Heavens-Above · Gunter

§ Orbital elements

Epoch: 2026-05-25T03:48:57.245760Z

Period
96.11 min
Inclination
70.0005°
Eccentricity
0.0004417
Mean motion
14.98336071 rev/d
Perigee alt
569.0 km
Apogee alt
575.1 km
Semi-major
6,950.2 km
B*
1.8130e-4
RAAN
161.7590°
Arg perigee
264.5722°
Mean anomaly
95.4933°
Rev number
7,014

§ Raw data

STARLINK-329181 63087U 25037L   26145.15899590  .00002071  00000+0  18130-3 0  99902 63087  70.0005 161.7590 0004417 264.5722  95.4933 14.98336071 70148

JSON: /api/v1/satellites/63087 · /tle

For live sub-satellite position, see the globe view (requires WebGL).

§ Visibility from observer

Set your observer location to see the next 7 days of passes ≥ 10°. The values pass through the URL so the page stays shareable.

No JS? Fill the form by hand. The geolocation button needs JavaScript.